www.pogodaiklimat.ru

Погода и климат >> Архив погоды >> Французская Полинезия >> Bora-Bora Airport


ПОГОДА в Bora-Bora Airport

  • Прогноз погоды в Bora-Bora Airport
  • Монитор погоды в Bora-Bora Airport
  • Климат города

АРХИВ ПОГОДЫ в Bora-Bora Airport

Время (UTC), дата Ветер
(напр.,м/с)
 
Видим.   Явления Облачность Т
(С)
Тd
(С)
f
(%)
Тe
(С)
Тes
(С)
Комфортность P
(гПа)
Po
(гПа)
Тmin
(С)
Tmax
(С)
R
(мм)
R24
(мм)
S
(см)
02 15.10 В 4 30 км 9/6 870 м
[]
+27.1 +20.2 66 +33 +34 очень
душно
1010.8 1010.5
01 15.10 В 7
{11}
29 км н/о +26.7 +20.5 69 +33 +33 очень
душно
1010.9 1010.6
03 15.10 В 4 40 км 9/5 1000 м
[]
+26.3 +18.4 62 +31 +32 душно 1011.3 1011.0
04 15.10 В 4 29 км 10/1 930 м
[]
+26.0 +19.4 67 +31 +31 очень
душно
1012.0 1011.7
05 15.10 В 4 24 км 10/1 800 м
[]
+25.9 +19.8 69 +32 +32 очень
душно
1012.3 1012.0
06 15.10 В 5 23 км 10/3 700 м
[]
+25.6 +20.2 72 +32 +32 очень
душно
1012.6 1012.3 +25.6 +28.5
08 15.10 В 5 23 км 10/5 870 м
[]
+25.6 +19.0 67 +31 +31 очень
душно
1013.2 1012.9
07 15.10 В 5 28 км 10/6 800 м
[]
+25.6 +19.5 69 +31 +31 очень
душно
1012.9 1012.6
09 15.10 В 4 30 км 9/4 870 м
[]
+25.5 +19.2 68 +31 +31 очень
душно
1013.3 1013.0
10 15.10 В 4 27 км 10/6 870 м
[]
+25.3 +19.2 69 +30 +30 душно 1012.2 1011.9
11 15.10 В 4 29 км 10/6 840 м
[]
+25.3 +19.0 68 +30 +30 душно 1011.8 1011.5 0.0
12 15.10 В 4 30 км 10/4 900 м
[]
+25.3 +18.7 67 +30 +30 душно 1010.8 1010.5 0.0
14 15.10 В 4-6
{7}
30 км н/о +25.0 +18.0 65 +29 +29 душно 1010.6 1010.3
13 15.10 В 4 30 км н/о +25.0 +18.4 67 +30 +30 душно 1010.4 1010.1
15 15.10 В 8
{12}
40 км н/о +25.0 +17.5 63 +29 +29 душно 1011.3 1011.0
16 15.10 В 7
{12}
35 км 8/8 600 м
[]
+25.2 +19.3 70 +30 +30 душно 1011.5 1011.2
17 15.10 В 8
{13}
35 км 10/10 600 м
[]
+26.0 +19.9 69 +32 +32 очень
душно
1012.2 1011.9
18 15.10 В 4 23 км н/о +26.8 +20.2 67 +33 +33 очень
душно
1012.7 1012.4 +24.9 +26.8
20 15.10 В 5-6
{7}
22 км н/о +28.1 +20.1 62 +34 +34 очень
душно
1012.5 1012.2
19 15.10 В 4-6
{6}
22 км н/о +28.0 +20.3 63 +34 +34 очень
душно
1013.0 1012.7
21 15.10 В 8
{12}
22 км н/о +28.9 +20.6 61 +36 +36 очень
душно
1012.3 1012.0
22 15.10 В 8
{13}
22 км н/о +28.8 +21.3 64 +36 +36 очень
душно
1011.7 1011.4
23 15.10 В 7
{13}
23 км 9/9 600 м
[]
+27.8 +20.9 66 +35 +35 очень
душно
1010.9 1010.6
00 16.10 В 4 19 км 8/4 700 м
[]
+27.6 +21.6 70 +35 +40 очень
душно
1010.1 1009.8
02 16.10 В 8
{13}
25 км 9/9 600 м
[]
+27.2 +21.2 70 +34 +35 очень
душно
1010.2 1009.9
01 16.10 В 8
{13}
25 км 9/9 600 м
[]
+27.2 +21.2 70 +34 +35 очень
душно
1010.2 1009.9
03 16.10 В 4 28 км 9/3 700 м
[]
+26.6 +21.1 72 +34 +34 очень
душно
1010.4 1010.1
04 16.10 В 4 30 км 10/8 700 м
[]
+26.4 +20.9 72 +33 +33 очень
душно
1011.1 1010.8
05 16.10 В 4 27 км 10/8 600 м
[]
+26.1 +21.5 76 +33 +33 очень
душно
1011.6 1011.3
06 16.10 В 5 30 км 10/1 570 м
[]
+26.0 +21.2 75 +33 +33 очень
душно
1011.9 1011.6 +26.0 +29.4
08 16.10 В 5 23 км 10/6 600 м
[]
+25.8 +21.5 77 +33 +33 очень
душно
1012.4 1012.1
07 16.10 В 5 17 км 10/4 630 м
[]
+26.1 +21.7 77 +34 +34 очень
душно
1012.0 1011.7
09 16.10 В 5 12 км слабый дождь 10/8 570 м
[]
+25.8 +21.9 79 +33 +33 очень
душно
1011.8 1011.5 0.0
10 16.10 В 9
{14}
15 км 9/9 300 м
[]
+25.8 +21.7 78 +33 +33 очень
душно
1011.2 1010.9 0.0
11 16.10 В 4 12 км 9/9 600 м
[]
+25.9 +21.8 78 +33 +33 очень
душно
1010.6 1010.3 0.0
12 16.10 В 4 12 км 10/9 570 м
[]
+25.8 +21.9 79 +33 +33 очень
душно
1009.7 1009.4 0.0
14 16.10 В 4 11 км 10/6 450 м
[]
+25.6 +22.1 81 +33 +33 очень
душно
1009.7 1009.4
13 16.10 В 4 19 км 10/8 540 м
[]
+25.4 +21.5 79 +32 +32 очень
душно
1009.6 1009.3
15 16.10 В 7
{12}
22 км 10/10 300 м
[]
+25.0 +21.7 82 +32 +32 очень
душно
1010.2 1009.9 0.2
16 16.10 В 4 12 км слабый дождь 10/6 450 м
[]
+24.8 +22.9 89 +33 +33 очень
душно
1010.6 1010.3 0.2
17 16.10 В 8
{14}
7000 м слабый дождь 9/9 300 м
[]
+23.9 +22.9 94 +32 +32 очень
душно
1011.6 1011.3 2
18 16.10 В 5 17 км 10/10 400 м
[]
+24.7 +22.8 89 +33 +33 очень
душно
1013.0 1012.7 +23.3 +26.2 2
20 16.10 В 5 6000 м слабый дождь 10/10 270 м
[]
+24.1 +22.9 93 +32 +32 очень
душно
1012.9 1012.6 3
19 16.10 СВ 6 2300 м слабый дождь 10/8 400 м
[]
+23.7 +22.0 90 +31 +31 очень
душно
1013.4 1013.1 1
21 16.10 В 11
{16}
5000 м слабый дождь 8/8 300 м
[]
+24.7 +23.3 92 +33 +33 очень
душно
1011.8 1011.5 6
22 16.10 В 5 9000 м слабый дождь 9/9 360 м
[]
+24.1 +22.4 90 +31 +33 очень
душно
1011.6 1011.3 0.6
23 16.10 В 4 15 км 10/9 420 м
[]
+24.2 +21.9 87 +31 +32 очень
душно
1011.1 1010.8 1
00 17.10 В 4 8000 м слабый дождь 9/9 630 м
[]
+25.0 +21.5 81 +32 +33 очень
душно
1010.3 1010.0 2
02 17.10 В 4 9000 м слабый дождь 10/10 300 м
[]
+23.8 +22.4 92 +31 +31 очень
душно
1010.6 1010.3 0.8
01 17.10 В 4 22 км слабый дождь н/о +24.4 +21.1 82 +31 +31 очень
душно
1010.2 1009.9 0.2
03 17.10 В 5 8000 м слабый дождь 10/10 420 м
[]
+24.2 +22.6 91 +32 +32 очень
душно
1011.2 1010.9 2
04 17.10 В 5 8000 м слабый дождь 10/9 330 м
[]
+24.0 +22.4 91 +31 +31 очень
душно
1011.9 1011.6 0.2
05 17.10 В 4 30 км слабый дождь 9/9 330 м
[]
+24.0 +22.6 92 +31 +31 очень
душно
1011.7 1011.4 0.0
06 17.10 В 4 16 км 10/9 420 м
[]
+24.7 +22.9 90 +33 +33 очень
душно
1011.9 1011.6 +23.4 +25.2 0.2
08 17.10 В 5 16 км слабый дождь 9/5 480 м
[]
+24.9 +22.6 87 +33 +33 очень
душно
1013.0 1012.7 0.0
07 17.10 В 4 13 км слабый дождь 10/10 450 м
[]
+24.9 +22.8 88 +33 +33 очень
душно
1012.9 1012.6 0.0
09 17.10 В 5 9000 м слабый дождь 10/9 500 м
[]
+24.8 +22.9 89 +33 +33 очень
душно
1012.6 1012.3 0.2
10 17.10 В 5 11 км слабый дождь 10/9 500 м
[]
+24.9 +22.6 87 +33 +33 очень
душно
1012.2 1011.9 0.0
11 17.10 В 4 9000 м 9/6 600 м
[]
+25.2 +22.1 83 +33 +33 очень
душно
1011.2 1010.9 0.2
12 17.10 В 3 9000 м слабый дождь 10/6 480 м
[]
+25.0 +22.7 87 +33 +33 очень
душно
1011.0 1010.7 0.2
14 17.10 В 4 16 км 9/6 480 м
[]
+24.9 +22.6 87 +33 +33 очень
душно
1010.7 1010.4
13 17.10 В 4 16 км 10/8 420 м
[]
+24.8 +22.9 89 +33 +33 очень
душно
1010.3 1010.0 0.0
15 17.10 В 4 26 км 9/6 450 м
[]
+24.9 +22.2 85 +32 +32 очень
душно
1011.0 1010.7 0.0
16 17.10 В 4 16 км 10/4 540 м
[]
+25.2 +22.5 85 +33 +33 очень
душно
1011.6 1011.3 0.4
17 17.10 В 5 14 км 8/6 540 м
[]
+25.7 +22.6 83 +34 +34 очень
душно
1012.2 1011.9
18 17.10 В 5 26 км 8/8 420 м
[]
+25.5 +22.2 82 +33 +34 очень
душно
1012.8 1012.5 +24.6 +26.5 0.4
20 17.10 В 4 25 км 8/6 1140 м
[]
+27.2 +22.4 75 +36 +39 очень
душно
1013.0 1012.7
19 17.10 В 5 25 км н/о +27.0 +22.6 77 +36 +36 очень
душно
1013.0 1012.7
21 17.10 В 4-6
{6}
12 км 8/8 500 м
[]
+28.2 +22.2 70 +37 +39 очень
душно
1012.4 1012.1
22 17.10 В 7
{12}
20 км 9/9 300 м
[]
+28.0 +23.2 75 +38 +38 очень
душно
1011.5 1011.2 0.0
23 17.10 В 4 13 км 9/8 570 м
[]
+27.6 +22.8 75 +37 +39 очень
душно
1011.0 1010.7
00 18.10 В 4 18 км 8/8 600 м
[]
+27.6 +22.3 73 +36 +38 очень
душно
1010.4 1010.1 0.0
02 18.10 В 8
{13}
27 км 8/8 300 м
[]
+26.0 +22.7 82 +34 +35 очень
душно
1010.0 1009.7
01 18.10 В 4 13 км н/о +27.2 +22.8 77 +36 +36 очень
душно
1009.8 1009.5
03 18.10 В 4 16 км н/о +25.0 +23.1 89 +33 +33 очень
душно
1010.2 1009.9 0.0
04 18.10 В 3 22 км 9/4 400 м
[]
+25.4 +22.5 84 +33 +33 очень
душно
1011.2 1010.9
05 18.10 В 3 14 км 9/3 360 м
[]
+25.4 +23.5 89 +34 +34 очень
душно
1011.6 1011.3
06 18.10 В 3 30 км н/о +25.3 +23.0 87 +34 +34 очень
душно
1011.9 1011.6 +24.8 +29.2
08 18.10 В 4 21 км 10/8 420 м
[]
+25.9 +23.2 85 +35 +35 очень
душно
1013.1 1012.8
07 18.10 В 4-5
{5}
28 км н/о +25.8 +22.9 84 +34 +34 очень
душно
1012.5 1012.2
09 18.10 В 3-4
{5}
25 км н/о +25.4 +22.3 83 +33 +33 очень
душно
1012.9 1012.6
10 18.10 В 3 25 км 10/6 500 м
[]
+25.5 +22.6 84 +34 +34 очень
душно
1012.2 1011.9
11 18.10 В 3 23 км 9/8 360 м
[]
+25.4 +22.9 86 +34 +34 очень
душно
1011.9 1011.6
12 18.10 СВ 3 23 км 10/5 330 м
[]
+25.4 +23.3 88 +34 +34 очень
душно
1011.5 1011.2
14 18.10 СВ 3 15 км 10/1 240 м
[]
+24.0 +22.8 93 +32 +32 очень
душно
1011.0 1010.7 6
13 18.10 СВ 4 3500 м сильный дождь 9/8 420 м
[]
+25.0 +22.7 87 +33 +33 очень
душно
1011.3 1011.0 0.6
15 18.10 В 2 19 км 10/4 300 м
[]
+24.9 +23.7 93 +34 +34 очень
душно
1011.5 1011.2 6
16 18.10 В 6
{8}
24 км 10/10 300 м
[]
+25.4 +23.5 89 +34 +34 очень
душно
1012.3 1012.0
17 18.10 СВ 3 27 км 8/5 500 м
[]
+26.4 +23.7 85 +36 +37 очень
душно
1013.1 1012.8
18 18.10 СВ 5 20 км н/о +27.2 +23.2 79 +37 +37 очень
душно
1013.7 1013.4 +23.6 +27.6
20 18.10 СВ 4 24 км 8/4 500 м
[]
+27.7 +23.3 77 +37 +42 очень
душно
1013.8 1013.5
19 18.10 СВ 5 18 км 8/8 540 м
[]
+27.6 +23.2 77 +37 +38 очень
душно
1014.0 1013.7
21 18.10 СВ 7
{10}
25 км н/о +28.9 +23.6 73 +39 +39 очень
душно
1013.5 1013.2
22 18.10 СВ 4 25 км н/о +28.7 +23.4 73 +39 +39 очень
душно
1012.7 1012.4
23 18.10 СВ 5-6
{6}
24 км н/о +29.0 +22.7 69 +38 +38 очень
душно
1012.0 1011.7
00 19.10 СВ 4 24 км н/о +29.3 +23.3 70 +40 +40 очень
душно
1011.5 1011.2
02 19.10 СВ 3 22 км н/о +27.6 +23.0 76 +37 +37 очень
душно
1011.3 1011.0
01 19.10 СВ 4-4
{5}
22 км н/о +28.1 +22.8 73 +37 +37 очень
душно
1011.4 1011.1
03 19.10 СВ 3 20 км н/о +27.2 +23.2 79 +37 +37 очень
душно
1011.8 1011.5
04 19.10 СВ 4 24 км 9/5 540 м
[]
+27.1 +23.1 79 +36 +36 очень
душно
1012.4 1012.1 0.0
05 19.10 СВ 7
{10}
22 км 8/0
[]
+26.9 +22.9 79 +36 +36 очень
душно
1012.8 1012.5
06 19.10 СВ 4 18 км 8/3 600 м
[]
+26.2 +22.5 80 +34 +34 очень
душно
1013.4 1013.1 +26.2 +29.4 0.0
08 19.10 СВ 3-3
{7}
23 км н/о +26.3 +23.0 82 +35 +35 очень
душно
1014.2 1013.9 0.0
07 19.10 СВ 4 17 км 8/1 500 м
[]
+26.4 +23.3 83 +36 +36 очень
душно
1014.0 1013.7
09 19.10 СВ 3 15 км н/о +26.0 +23.3 85 +35 +35 очень
душно
1014.1 1013.8 0.0
10 19.10 В 2 18 км 9/4 400 м
[]
+25.4 +22.7 85 +33 +33 очень
душно
1013.5 1013.2
11 19.10 СВ 3 18 км 10/6 420 м
[]
+25.7 +23.9 90 +35 +35 очень
душно
1013.0 1012.7 0.4
12 19.10 В 4 14 км 10/9 270 м
[]
+25.3 +23.5 90 +34 +34 очень
душно
1012.6 1012.3 0.4
14 19.10 В 3-4
{4}
16 км 10/10 1500 м
[]
+25.7 +23.4 87 +35 +35 очень
душно
1012.5 1012.2
13 19.10 В 3 20 км н/о +25.2 +22.7 86 +33 +33 очень
душно
1012.1 1011.8
15 19.10 В 3 16 км н/о +25.8 +23.5 87 +35 +35 очень
душно
1013.3 1013.0
16 19.10 СВ 6
{10}
20 км 10/10 300 м
[]
+25.4 +22.7 85 +33 +33 очень
душно
1013.9 1013.6
17 19.10 СВ 3 21 км 9/9 1500 м
[]
+26.6 +23.3 82 +36 +36 очень
душно
1014.8 1014.5
18 19.10 В 3 19 км 10/10
[]
+27.3 +23.3 79 +37 +37 очень
душно
1015.4 1015.1 +24.6 +27.3
20 19.10 В 3-3
{4}
30 км н/о +29.1 +23.3 71 +39 +39 очень
душно
1015.5 1015.2
19 19.10 СВ 5
{7}
26 км н/о +28.5 +23.0 72 +38 +38 очень
душно
1015.8 1015.5
21 19.10 В 5
{7}
30 км н/о +29.3 +23.0 69 +39 +39 очень
душно
1015.3 1015.0
22 19.10 В 2 20 км н/о +29.3 +23.5 71 +40 +40 очень
душно
1015.0 1014.7
23 19.10 В 3-3
{4}
20 км н/о +29.6 +23.1 68 +40 +40 очень
душно
1014.5 1014.2
00 20.10 В 5
{6}
20 км н/о +29.6 +22.8 67 +39 +39 очень
душно
1013.6 1013.3
02 20.10 В 3-4
{4}
21 км н/о +28.8 +22.1 67 +37 +37 очень
душно
1013.0 1012.7
01 20.10 В 2-3
{3}
22 км н/о +29.3 +23.0 69 +39 +39 очень
душно
1013.2 1012.9
03 20.10 В 3-3
{4}
18 км н/о +27.6 +22.1 72 +36 +36 очень
душно
1013.3 1013.0
04 20.10 В 2-3
{3}
12 км н/о +26.9 +22.1 75 +35 +35 очень
душно
1014.2 1013.9
05 20.10 В 4
{6}
35 км н/о +26.5 +21.7 75 +34 +34 очень
душно
1015.1 1014.8
06 20.10 В 3 21 км н/о +26.2 +22.5 80 +34 +34 очень
душно
1015.3 1015.0 +26.2 +29.7
08 20.10 В 4 16 км н/о +25.9 +22.4 81 +34 +34 очень
душно
1015.7 1015.4
07 20.10 В 4 13 км 9/9 500 м
[]
+26.1 +22.4 80 +34 +34 очень
душно
1015.5 1015.2
09 20.10 В 3 27 км 9/6 500 м
[]
+25.6 +22.5 83 +34 +34 очень
душно
1015.5 1015.2
10 20.10 В 4 26 км 9/9 240 м
[]
+25.2 +23.1 88 +34 +34 очень
душно
1014.8 1014.5
11 20.10 В 7
{12}
26 км 10/10 300 м
[]
+25.3 +22.2 83 +33 +33 очень
душно
1014.4 1014.1 0.0
12 20.10 В 4 10 км 10/10 630 м
[]
+26.1 +21.7 77 +34 +34 очень
душно
1013.6 1013.3 0.0
14 20.10 В 5 12 км н/о +26.1 +22.2 79 +34 +34 очень
душно
1013.3 1013.0
13 20.10 В 4 10 км 10/10 630 м
[]
+26.3 +22.2 78 +34 +34 очень
душно
1013.2 1012.9
15 20.10 В 8
{11}
12 км н/о +26.1 +22.2 79 +34 +34 очень
душно
1013.6 1013.3
16 20.10 В 8
{12}
9000 м слабый дождь 9/9 600 м
[]
+25.9 +22.0 79 +33 +33 очень
душно
1014.2 1013.9 0.0
17 20.10 В 7
{12}
9000 м 10/10 600 м
[]
+26.2 +22.5 80 +34 +34 очень
душно
1015.0 1014.7 0.0
18 20.10 В 4 10 км 10/10 630 м
[]
+27.1 +21.8 73 +35 +35 очень
душно
1015.4 1015.1 +24.7 +27.1 0.0
20 20.10 В 5 11 км н/о +28.9 +21.4 64 +37 +37 очень
душно
1015.0 1014.7
19 20.10 В 4 12 км 8/8 800 м
[]
+28.1 +20.9 65 +35 +37 очень
душно
1015.3 1015.0
21 20.10 В 5 12 км 8/8 870 м
[]
+28.6 +21.1 64 +36 +38 очень
душно
1014.6 1014.3
22 20.10 В 5-7
{7}
11 км н/о +29.1 +20.5 60 +36 +36 очень
душно
1014.0 1013.7
23 20.10 В 4 23 км 8/8 870 м
[]
+29.3 +20.7 60 +36 +39 очень
душно
1013.3 1013.0
00 21.10 В 4 14 км н/о +28.8 +20.3 60 +35 +35 очень
душно
1013.0 1012.7
02 21.10 В 4-5
{6}
11 км н/о +28.3 +19.5 59 +34 +34 очень
душно
1012.4 1012.1
01 21.10 В 4-5
{6}
13 км н/о +28.8 +20.5 61 +36 +36 очень
душно
1012.8 1012.5
03 21.10 В 4-5
{5}
10 км н/о +27.5 +19.0 60 +33 +33 очень
душно
1012.6 1012.3
04 21.10 В 4-5
{6}
23 км н/о +26.3 +19.4 66 +32 +32 очень
душно
1013.3 1013.0
05 21.10 В 3 24 км н/о +26.0 +19.2 66 +31 +31 очень
душно
1013.8 1013.5
06 21.10 В 3 26 км н/о +25.8 +19.7 69 +31 +31 очень
душно
1014.3 1014.0 +25.7 +29.6
08 21.10 В 4-5
{5}
26 км н/о +25.6 +19.5 69 +31 +31 очень
душно
1014.6 1014.3
07 21.10 В 3-5
{5}
13 км н/о +25.8 +19.2 67 +31 +31 очень
душно
1014.3 1014.0
09 21.10 В 4-5
{6}
20 км н/о +25.8 +19.9 70 +32 +32 очень
душно
1014.2 1013.9
10 21.10 В 3-5
{6}
14 км н/о +25.5 +19.9 71 +31 +31 очень
душно
1013.8 1013.5
11 21.10 В 3 30 км н/о +25.4 +19.8 71 +31 +31 очень
душно
1013.4 1013.1
12 21.10 В 4 16 км 9/8 570 м
[]
+25.5 +21.4 78 +32 +32 очень
душно
1013.1 1012.8 0.0
14 21.10 ЮВ 4-4
{5}
50 км 10/10 1500 м
[]
+24.7 +20.0 75 +30 +30 очень
душно
1012.7 1012.4
13 21.10 В 4-5
{7}
55 км 10/10 1500 м
[]
+24.7 +19.5 73 +30 +30 очень
душно
1013.0 1012.7 0.0
15 21.10 В 3 30 км 8/1 660 м
[]
+24.7 +20.4 77 +31 +31 очень
душно
1013.0 1012.7 0.0
16 21.10 В 5
{8}
29 км н/о +25.0 +20.9 78 +31 +31 очень
душно
1013.5 1013.2
17 21.10 В 3 19 км 8/6 800 м
[]
+26.1 +20.7 72 +33 +33 очень
душно
1014.2 1013.9
18 21.10 В 3 35 км 10/5 800 м
[]
+26.7 +20.3 68 +33 +34 очень
душно
1015.0 1014.7 +24.4 +26.8
20 21.10 В 4-5
{5}
35 км н/о +28.9 +20.9 62 +36 +36 очень
душно
1014.7 1014.4
19 21.10 В 3 35 км 9/6 720 м
[]
+26.9 +20.7 69 +34 +36 очень
душно
1015.1 1014.8 0.2
21 21.10 В 7
{11}
35 км н/о +29.3 +21.0 61 +37 +37 очень
душно
1014.3 1014.0 0.2
22 21.10 В 3-5
{5}
30 км н/о +29.5 +20.9 60 +37 +37 очень
душно
1014.0 1013.7
23 21.10 В 3-5
{5}
30 км н/о +29.5 +20.9 60 +37 +37 очень
душно
1013.1 1012.8
00 22.10 В 4-5
{6}
30 км н/о +29.0 +20.2 59 +35 +35 очень
душно
1012.5 1012.2

 

Местоположение метеостанции Bora-Bora Airport (Французская Полинезия): широта -16.43 долгота -151.70 высота над уровнем моря 3 м.

В архиве по умолчанию представлена погода в Bora-Bora Airport за последнюю неделю. Архивные данные за месяц целиком и за предыдущие месяцы, начиная с января 2011 года, Вы можете получить, выбрав интересующий диапазон дат из раскрывающегося списка и нажав кнопку "Ввод!".

Внимание! Время в таблицах - всемирное. Для получения местного времени необходимо прибавить поправку, которая в Bora-Bora Airport равна -10 ч.

Смотрите также архив погоды в соседних городах и на ближайших метеорологических станциях:

Погода в Tahiti-Faaa (Французская Полинезия) (256 км)
Погода в Takaroa (Французская Полинезия) (750 км)
Погода в Hereheretue (Французская Полинезия) (806 км)
Погода в Tubuai (Французская Полинезия) (806 км)
Погода в Aitutaki (Кука Острова) (889 км)
Погода в Rarotonga (Кука Острова) (1004 км)
Погода в Penrhyn (Кука Острова) (1070 км)
Погода в Hao (Французская Полинезия) (1161 км)
Погода в Manihiki (Кука Острова) (1209 км)
Погода в Rapa (Французская Полинезия) (1458 км)

Пояснения к столбцам:

Ветер - указаны скорость ветра в м/с - средняя за 10 мин, порывы в срок и между сроками (в фигурных скобках) и направление, откуда дует ветер: С - северный, СВ - северо-восточный, В - восточный, ЮВ - юго-восточный, Ю - южный, ЮЗ - юго-западный, З - западный, СЗ - северо-западный.
Видимость - горизонтальная дальность видимости в метрах или километрах. При видимости от 1 до 10 км при отсутствии осадков обычно наблюдается дымка, при ухудшении видимости до 1 км и менее - туман. В сухую погоду видимость может ухудшаться дымом, пылью или мглою.
Явления - указаны атмосферные явления, наблюдавшиеся в срок или в последний час перед сроком; фигурными скобками обозначены явления, наблюдавшиеся между сроками (за 1-3 часа до срока); квадратными скобками обозначены град или гололедные отложения с указанием их диаметра в мм.
Облачность - указаны через наклонную черту общая и нижняя облачность в баллах и высота нижней границы облаков в метрах; квадратными скобками обозначены формы облаков: Ci - перистые, Cs - перисто-слоистые, Cc - перисто-кучевые, Ac - высококучевые, As - высокослоистые, Sc - слоисто-кучевые, Ns - слоисто-дождевые, Cu - кучевые, Cb - кучево-дождевые. Подробнее классификацию облаков см. в Атласе облаков (PDF).
T - Температура воздуха - температура, измеренная на высоте 2 м над землей.
Td - Температура точки росы - температура, при понижении до которой содержащийся в воздухе водяной пар достигнет насыщения.
f - Относительная влажность воздуха - влажноcть воздуха, измеренная на высоте 2 м над землей.
Te - Эффективная температура - температура, которую ощущает одетый по сезону человек в тени. Характеристика душности погоды. При расчете учитывается влияние влажности воздуха и скорости ветра на теплоощущения человека.
Tes - Эффективная температура на солнце - температура, которую ощущает человек, с поправкой на солнечный нагрев. Характеристика знойности погоды. Зависит от высоты солнца над горизонтом, облачности и скорости ветра. Ночью, в пасмурную погоду, а также при ветре 12 м/с и более поправка равна нулю.
P - Атмосферное давление - приведенное к уровню моря атмосферное давление.
Po - Атмосферное давление - измеренное на уровне метеостанции атмосферное давление.
Tmin - Минимальная температура - минимум температуры воздуха на высоте 2 м над землей.
Tmax - Максимальная температура - максимум температуры воздуха на высоте 2 м над землей.
R - Количество осадков - Количество выпавших осадков за период времени, мм. При наведении курсора мыши на число - период времени, за который выпало указанное количество осадков.
R24 - Количество осадков - Количество выпавших осадков за 24 часа, мм.
S - Снежный покров - Высота снежного покрова, см. При наведении курсора мыши на число - состояние снежного покрова и степень покрытия местности в баллах.